Flag for Paraguay Weather past 2 weeks in Ciudad del Este, Paraguay

Now
59 °F

Sunny.


Feels Like: 57 °F
Forecast: 59 / 77 °F
Wind: 9 mph from Southeast

Location: Foz Do Iguacu Aeroporto

Current Time: Jul 28, 2015 at 6:55:01 AM

Latest Report: Jul 28, 2015 at 6:00 AM


Visibility: 10 mi

Pressure: 30.04 "Hg

Humidity: 82%

Dew point: 54 °F

Location of Ciudad del EsteLocation

Historic Weather in Ciudad del Este — Graph

°F

Ciudad del Este temperature yesterday

Maximum temperature yesterday: 79 °F (at 2:00 PM)
Minimum temperature yesterday: 54 °F (at 12:00 AM)
Average temperature yesterday: 64 °F

Past Weeks' High & Low Weather Summary

 TemperatureHumidityPressure
High81 °F (Jul 13, 12:00 PM)100% (Jul 14, 5:00 AM)30.24 "Hg (Jul 14, 5:00 AM)
Low32 °F (Jul 26, 2:00 AM)41% (Jul 15, 12:00 AM)29.62 "Hg (Jul 13, 1:00 PM)
Average62 °F88%30.06 "Hg
* Reported Jul 13 5:00 AM — Jul 28 5:00 AM, Ciudad del Este, Weather by CustomWeather, © 2015

Note: Actual official high and low records may vary slightly from our data, if they occured in-between our weather recording intervals... More about our weather records

Advertising

Ciudad del Este weather history for previous 24 hours

 ConditionsComfort  
Time TempWeatherWind HumidityBarometerVisibility
5:00 AM
Tue, Jul 28
57 °FClear.8 mph94%30.01 "Hg10 mi
4:00 AM57 °FClear.9 mph94%29.98 "Hg10 mi
3:00 AM59 °FClear.6 mph88%29.98 "Hg10 mi
2:00 AM59 °FClear.8 mph94%29.98 "Hg10 mi
1:00 AM61 °FClear.7 mph88%30.01 "Hg10 mi
12:00 AM61 °FClear.6 mph88%30.01 "Hg10 mi
11:00 PM
Mon, Jul 27
63 °FClear.8 mph83%30.01 "Hg10 mi
10:00 PM63 °FClear.7 mph83%30.01 "Hg10 mi
9:00 PM66 °FClear.6 mph78%30.01 "Hg10 mi
8:00 PM66 °FClear.7 mph78%29.98 "Hg10 mi
7:00 PM68 °FClear.5 mph78%29.98 "Hg10 mi
6:00 PM68 °FClear.5 mph78%29.98 "Hg10 mi
5:00 PM72 °FClear.5 mph69%29.98 "Hg10 mi
4:00 PM77 °FSunny.6 mph57%29.98 "Hg10 mi
3:00 PM77 °FSunny.5 mph57%29.98 "Hg10 mi
2:00 PM79 °FSunny.3 mph42%30.01 "Hg10 mi
1:00 PM77 °FSunny.6 mph44%30.01 "Hg10 mi
12:00 PM73 °FSunny.9 mph50%30.04 "Hg10 mi
11:00 AM70 °FSunny.5 mph64%30.07 "Hg10 mi
10:00 AM66 °FSunny.7 mph73%30.09 "Hg10 mi
9:00 AM61 °FSunny.9 mph83%30.09 "Hg10 mi
8:00 AM55 °FSunny.9 mph94%30.07 "Hg10 mi
7:00 AM54 °FSunny.7 mph94%30.04 "Hg10 mi
6:00 AM55 °FSunny.8 mph88%30.04 "Hg10 mi
Weather by CustomWeather, © 2015

See weather overviewHow to use our weather pages